Theta_e
323 322 321 320 320 320 319 320 320 318 318 318 316 315 315 314 313 312 312 312 311 311 311 310 310 309 309 310 309 310 310 310 310 311 312 311 311 311 311 310 309 308 307 305 304 302 302 302 301 298 293 287
321 320 320 320 320 320 319 319 318 317 317 316 315 314 313 313 312 311 311 311 311 311 310 309 309 309 309 309 309 309 310 310 311 311 311 310 309 309 309 308 308 306 305 304 302 301 300 300 299 296 293 285
317 319 319 319 319 319 318 317 317 317 316 315 314 313 312 311 312 312 310 310 310 310 308 307 307 308 308 308 308 308 309 309 309 309 310 309 308 307 307 307 306 305 304 302 301 299 298 297 295 294 287 283
314 317 318 318 317 317 317 317 316 315 315 314 312 311 311 310 307 308 307 310 306 308 307 306 305 306 307 308 307 308 308 307 307 307 307 307 307 306 305 305 303 302 302 301 299 297 296 294 290 281 280 281
312 314 315 316 316 316 316 315 315 315 313 311 311 309 307 303 296 295 296 298 300 304 299 307 306 306 306 307 307 307 306 306 306 305 305 303 302 301 300 299 300 300 299 298 297 295 293 290 280 279 279 280
311 312 313 310 311 310 312 313 313 308 304 305 302 305 298 294 295 293 294 296 299 296 297 300 305 305 306 306 306 306 306 305 304 304 303 301 300 298 296 293 280 283 294 295 294 292 289 279 278 278 279 279
309 308 307 307 307 308 310 307 303 302 301 299 297 294 293 293 292 292 292 293 295 296 302 300 303 304 305 306 306 305 304 303 303 302 301 300 297 295 292 281 278 278 277 280 289 286 279 277 277 277 278 279
307 306 306 305 305 304 302 300 299 298 297 295 293 292 291 290 291 290 291 300 300 298 292 295 300 300 298 298 299 297 292 298 299 299 298 295 292 288 283 278 279 278 278 277 277 277 277 276 276 277 277 277
304 304 304 303 303 302 300 297 296 295 293 292 291 290 289 289 290 289 291 288 287 285 284 282 281 282 282 282 283 288 278 279 282 280 278 279 282 278 280 279 278 277 277 278 277 276 276 277 276 276 277 276
302 302 301 301 300 299 297 296 294 292 290 289 289 288 288 289 287 288 288 285 284 283 282 280 279 279 279 279 279 282 277 277 277 277 277 278 278 277 277 277 278 279 279 277 276 276 276 276 276 276 275 276
301 300 299 299 297 297 295 294 292 290 288 287 287 287 289 287 286 287 286 284 282 281 280 280 278 278 278 278 278 279 277 277 277 276 276 276 277 276 276 276 276 276 276 276 276 276 275 275 276 276 275 275
301 300 298 298 299 297 296 293 292 289 287 287 286 287 288 288 287 287 286 283 281 280 279 279 278 278 277 277 277 278 277 277 276 276 275 276 276 277 276 277 276 276 276 275 275 275 275 275 275 275 275 275
300 298 298 297 296 294 297 292 291 289 287 286 286 287 288 288 286 286 286 283 281 279 279 278 278 277 276 277 277 278 276 277 276 276 276 276 276 276 276 276 276 276 275 275 275 275 275 275 275 275 275 275
299 298 297 296 295 293 296 290 290 288 286 286 286 286 287 287 287 286 285 283 281 281 279 278 278 278 277 276 277 276 277 276 276 275 275 276 276 276 276 277 278 275 275 275 275 275 275 274 274 274 275 275
299 297 296 295 294 292 293 290 289 288 287 285 286 286 286 286 287 285 284 283 281 280 279 278 277 277 277 276 276 277 277 277 276 275 276 276 275 276 276 276 277 275 275 274 275 276 274 274 274 274 274 275
298 296 295 294 292 291 291 289 288 288 287 287 286 286 286 286 285 286 283 282 281 280 279 278 277 277 276 276 276 277 276 277 277 276 275 275 275 275 276 275 275 275 274 274 274 274 274 274 275 274 274 274
296 295 294 293 292 291 291 289 288 287 287 286 286 286 286 285 285 286 283 282 282 283 279 278 277 276 278 276 276 277 277 277 276 277 276 276 276 275 275 275 275 276 274 274 274 274 274 273 274 274 274 274
295 294 293 293 292 291 291 289 288 288 287 287 286 286 286 285 285 285 283 282 281 281 279 278 277 277 277 276 276 277 277 276 276 275 275 276 275 280 277 275 276 274 274 274 274 274 275 274 274 274 274 274
295 294 293 292 292 292 291 290 289 288 287 286 286 286 286 285 285 285 283 282 282 280 279 278 277 277 277 276 277 276 276 276 275 275 275 276 276 276 274 274 277 274 274 274 274 274 275 273 275 275 274 274
294 294 293 292 293 292 291 291 289 288 287 286 286 286 285 285 285 284 283 282 282 280 279 279 278 277 277 277 276 276 276 276 275 275 276 277 276 275 274 276 275 275 273 274 275 276 274 273 277 274 274 274
294 293 292 292 292 291 291 290 289 289 287 286 285 285 285 285 285 284 283 282 282 281 280 279 278 277 277 277 276 276 276 275 276 275 276 276 276 275 273 275 273 274 274 275 275 274 274 274 276 273 273 274
294 293 293 292 292 292 290 290 290 289 287 286 286 285 285 284 285 285 283 282 282 281 280 279 278 277 276 277 276 276 275 275 275 275 275 275 275 274 274 274 274 274 274 275 275 275 274 273 273 273 273 274
295 294 293 291 291 290 290 289 289 288 286 286 285 284 284 283 284 286 283 282 282 281 281 279 278 277 276 277 276 275 275 275 275 275 275 275 274 275 273 274 273 273 274 274 275 274 274 274 273 273 273 277
294 293 291 289 288 288 289 288 288 286 286 286 285 285 285 284 283 284 283 282 282 281 281 279 278 277 276 276 276 275 275 274 275 275 274 274 274 274 275 275 273 274 275 274 273 275 275 273 273 272 274 274
294 291 290 289 289 288 288 287 287 286 285 285 285 285 284 284 283 283 283 282 281 281 282 279 278 277 276 276 276 276 276 276 275 275 275 275 276 274 273 273 273 273 273 272 272 273 272 273 273 276 278 274
294 293 292 291 289 289 288 287 287 286 285 285 285 285 284 284 283 283 282 283 281 281 280 279 278 277 276 276 276 276 276 275 278 276 274 274 274 275 273 272 273 273 273 271 271 271 271 272 273 274 275 273
293 293 293 292 291 290 289 289 289 288 287 286 285 284 284 284 283 282 282 282 282 281 280 279 278 277 277 276 277 276 275 275 275 275 274 274 274 273 273 273 274 273 273 270 271 271 272 270 271 274 275 274
293 293 292 292 291 290 290 286 287 286 284 283 283 282 283 283 283 283 282 282 282 281 280 279 279 278 277 276 277 277 275 274 274 274 274 274 274 274 272 272 272 274 274 271 273 270 272 270 270 270 273 273
292 290 288 288 286 286 285 283 284 283 282 282 283 283 281 282 283 283 282 282 281 281 280 280 279 278 277 277 276 277 276 275 275 275 275 274 274 274 274 272 271 274 274 272 274 274 270 267 268 271 271 271
291 290 289 286 286 284 283 283 282 282 284 282 282 283 283 283 283 283 282 282 281 281 281 280 279 278 277 277 277 277 276 276 275 274 274 274 274 274 274 274 272 271 275 274 274 273 273 273 270 269 269 271
290 289 289 287 287 287 286 286 285 286 286 286 284 284 283 283 282 282 282 282 281 281 281 280 279 278 278 277 277 278 276 275 275 275 275 275 274 274 275 273 272 272 271 273 273 274 273 272 271 271 270 270
Wind_Speed
14 13 14 16 17 16 15 16 17 16 16 17 15 14 13 12 12 11 10 9 9 8 9 8 8 7 7 8 8 8 9 9 10 10 12 12 14 14 14 15 15 15 16 16 16 15 15 15 15 13 10 7
13 13 13 14 14 14 15 15 16 15 15 15 15 14 13 12 11 11 10 10 9 9 8 7 7 7 8 8 8 8 9 9 11 11 12 13 13 14 14 14 14 15 15 15 15 15 15 14 14 13 11 6
10 13 12 12 13 14 15 15 15 15 15 15 13 13 13 12 9 7 10 10 10 9 9 7 7 7 7 7 7 8 8 10 10 11 12 13 13 13 14 14 14 14 14 15 15 15 14 14 13 13 8 6
8 11 12 12 13 13 14 14 15 15 15 14 15 15 14 11 8 8 6 10 7 10 9 8 5 5 7 7 7 7 8 9 10 10 11 12 13 14 14 14 14 14 14 14 15 14 14 13 12 7 5 5
6 8 12 11 12 13 13 13 13 13 15 14 13 11 11 10 8 6 6 7 7 9 4 8 6 6 6 7 7 7 8 9 9 10 11 12 12 13 13 14 14 14 14 14 15 14 13 12 7 5 6 6
5 5 7 6 6 6 9 10 11 9 8 9 7 11 9 7 6 6 6 6 7 5 5 5 9 7 7 7 8 8 9 9 9 10 11 12 13 14 14 14 7 7 11 14 14 13 13 8 6 6 5 6
6 6 5 5 6 6 7 7 7 7 7 6 7 7 7 6 6 6 5 5 6 5 8 6 9 8 9 9 9 9 10 9 9 10 11 13 13 14 13 8 6 6 6 7 12 10 7 6 6 5 6 5
6 6 6 6 5 6 6 6 6 6 6 6 7 7 6 6 6 6 6 7 9 7 5 5 8 11 10 10 10 12 9 10 11 12 12 13 13 9 5 6 6 6 6 6 6 6 6 6 5 6 5 5
6 6 6 6 6 6 6 6 6 6 6 6 7 7 6 6 5 6 6 5 6 6 6 5 4 5 5 4 5 7 6 5 5 6 6 5 6 5 5 6 5 5 6 5 5 6 5 5 5 5 5 5
6 7 7 7 6 6 5 6 6 5 6 6 6 6 7 7 7 6 6 5 5 5 6 5 5 5 5 4 4 4 6 5 5 5 4 5 5 4 5 5 4 4 4 5 5 6 5 5 5 5 5 5
6 7 6 7 7 8 7 6 7 6 5 6 6 7 7 8 7 6 6 6 5 6 5 5 5 5 4 5 4 3 6 5 4 4 5 5 4 3 5 5 4 4 4 4 5 4 4 4 4 5 5 5
7 6 7 7 7 7 8 8 7 7 6 6 6 6 7 7 8 8 7 6 6 5 4 5 4 5 5 5 4 3 6 6 4 4 4 4 4 4 4 5 4 4 4 4 4 4 4 4 4 4 4 4
7 6 7 7 7 7 8 7 7 7 7 7 6 5 7 7 8 6 6 7 6 5 5 5 5 5 5 5 5 5 4 5 5 5 4 5 4 4 4 4 4 4 3 3 4 4 4 3 3 4 4 4
8 8 8 8 8 7 7 7 7 6 7 6 7 7 6 7 8 8 8 7 6 7 6 5 4 5 5 6 5 5 6 4 6 6 4 4 4 4 4 4 3 4 4 4 3 3 4 3 3 3 3 3
10 9 9 8 7 7 7 7 7 6 6 6 6 7 7 6 6 7 7 8 8 6 7 6 6 6 5 6 5 5 5 3 5 4 5 5 5 5 4 4 2 5 4 3 3 3 3 2 2 3 2 3
9 9 9 8 7 8 7 7 7 7 7 7 7 6 7 7 7 7 6 8 8 7 7 7 6 6 6 6 5 5 5 5 4 5 3 3 3 3 4 4 4 2 5 3 2 2 3 2 3 3 2 3
9 8 8 8 8 8 7 8 7 8 8 8 7 7 8 7 7 7 8 8 9 8 7 7 7 6 6 6 5 4 5 5 4 5 4 3 3 4 3 4 3 2 3 4 2 2 2 2 2 2 2 2
9 9 8 8 8 7 7 7 8 8 7 8 8 8 8 8 7 7 7 8 7 7 7 7 7 7 6 6 5 5 5 6 5 6 5 4 4 4 4 4 3 4 3 2 1 2 1 2 2 2 2 2
11 9 9 9 8 8 9 8 9 8 7 8 8 8 8 8 8 7 7 7 8 7 7 7 7 7 7 6 5 6 5 6 5 5 6 5 6 3 3 3 2 3 3 3 2 1 1 1 1 1 1 1
12 11 10 9 8 9 9 9 8 8 9 8 7 8 8 8 8 7 8 8 8 8 7 8 8 7 6 7 6 6 5 5 6 6 5 4 6 6 3 3 2 2 3 2 2 1 1 1 1 1 1 0
11 10 10 10 10 10 10 9 9 8 7 7 7 8 8 8 8 8 8 8 8 8 8 7 7 6 7 7 7 6 6 6 6 6 6 4 4 5 5 5 4 2 2 2 1 0 0 1 0 1 1 1
12 11 11 10 9 9 10 10 9 8 7 8 8 8 9 8 9 8 9 8 8 7 7 7 7 6 7 7 7 6 6 6 5 5 6 6 3 4 4 5 5 4 3 2 1 0 1 1 1 2 2 1
11 9 9 6 7 8 8 7 7 6 7 8 8 9 8 8 9 9 9 9 9 8 8 7 6 7 7 7 7 7 6 5 5 4 4 6 5 3 3 4 4 3 4 2 0 1 2 1 2 2 2 1
10 9 9 9 6 6 7 7 6 6 9 8 8 8 9 9 9 8 9 9 9 8 8 7 8 8 7 7 8 8 8 7 7 9 7 6 6 5 2 1 3 3 3 1 0 1 2 2 2 3 2 2
12 11 8 7 10 12 10 10 10 10 9 9 9 9 9 9 9 8 8 8 9 9 8 7 7 7 7 7 8 9 10 10 9 7 7 6 4 6 5 3 2 3 4 2 1 0 2 4 1 2 2 4
13 13 14 13 12 11 11 10 10 10 10 11 9 9 9 9 9 9 9 9 9 9 9 9 8 8 9 9 8 8 5 5 5 5 5 6 4 3 6 5 5 5 5 0 5 2 2 2 2 3 3 3
13 12 11 11 9 12 10 10 10 10 9 7 8 8 9 8 8 9 9 10 10 10 9 9 9 9 8 9 8 7 7 7 7 8 8 8 8 6 2 2 3 7 5 5 3 1 2 3 1 3 2 3
13 12 11 10 7 8 8 5 6 5 4 6 6 7 7 8 9 10 10 11 11 9 8 9 10 8 8 9 9 10 9 9 9 8 7 7 7 6 4 5 5 6 7 5 8 2 6 2 3 2 7 7
11 8 6 5 3 3 3 3 4 4 4 6 7 6 6 10 11 11 11 9 9 10 11 10 9 10 9 9 9 8 8 9 11 11 10 11 9 10 9 8 5 5 7 8 5 6 4 1 0 5 1 3
11 11 11 10 9 9 7 8 7 10 12 9 10 13 12 9 9 10 9 9 10 10 9 10 10 9 9 9 9 9 10 8 7 8 9 11 11 11 9 7 7 6 5 8 8 4 1 2 4 3 3 3
12 11 11 14 15 14 14 14 11 9 9 11 10 8 9 10 9 10 11 10 10 10 10 9 9 10 10 10 9 9 8 8 10 10 11 9 9 10 9 6 8 10 8 4 6 8 5 2 2 2 4 4
Wind_Direction
148 149 154 160 153 150 149 147 146 145 143 144 147 145 147 143 139 142 141 141 133 130 126 136 132 125 107 104 111 107 101 97 94 88 85 82 79 78 77 79 80 80 80 78 76 74 72 67 60 55 53 49
138 145 157 156 148 144 146 144 143 144 146 144 142 147 144 137 135 144 150 138 129 121 124 110 116 108 117 118 116 110 101 96 92 87 85 84 82 79 78 79 81 81 79 78 77 75 73 68 61 55 52 49
142 151 156 151 144 142 142 140 140 141 139 141 133 121 115 115 108 129 131 126 132 126 117 112 113 137 126 116 119 114 100 93 89 88 86 83 82 81 80 79 79 79 78 79 77 76 72 65 59 54 46 40
145 155 154 149 146 146 145 143 142 141 139 123 116 116 113 101 90 76 101 120 120 125 121 116 97 128 131 130 127 120 104 95 90 90 89 86 80 77 77 77 78 76 78 77 75 73 68 62 56 45 40 36
140 150 148 147 146 143 144 144 143 135 126 121 120 111 100 91 90 83 74 74 79 76 74 121 131 132 135 132 128 122 109 98 97 92 90 88 85 81 73 63 61 74 78 74 73 69 64 59 51 40 40 36
133 141 134 132 131 131 136 135 125 118 117 116 113 109 104 105 103 102 94 90 87 82 66 97 112 113 116 126 126 124 109 103 99 95 91 88 87 82 76 67 51 38 55 69 69 65 60 53 48 37 37 37
134 129 128 126 127 129 124 119 112 119 116 115 116 115 116 111 111 110 106 105 110 110 107 103 110 117 117 117 109 104 104 105 98 93 88 87 85 80 72 66 60 61 56 48 56 54 51 52 44 42 36 35
139 140 137 133 131 126 121 116 122 120 121 120 124 124 120 119 118 115 121 119 105 87 76 77 80 78 69 68 72 67 52 55 71 70 74 83 77 68 65 69 64 68 64 64 59 56 52 53 44 45 38 34
150 145 137 136 133 130 129 127 126 129 129 131 132 130 125 127 123 124 113 104 100 102 100 91 76 68 72 71 63 74 66 61 58 65 62 57 63 62 71 71 65 70 68 61 61 59 51 55 49 43 37 31
151 147 150 150 145 135 132 136 135 137 139 141 144 138 136 128 125 127 122 120 120 116 114 107 102 95 96 82 80 78 92 79 84 79 77 80 78 71 75 76 71 62 79 79 65 61 54 53 52 46 38 32
151 162 161 152 154 148 151 146 145 151 152 153 150 148 147 139 142 140 139 135 135 133 126 121 123 120 111 112 105 99 110 98 91 99 95 89 88 86 82 77 73 72 67 74 82 66 60 56 54 50 40 34
166 163 160 163 156 157 157 153 161 163 164 154 159 159 157 147 150 151 150 150 146 147 130 135 131 128 115 116 117 115 117 117 105 99 99 100 92 86 81 91 78 75 66 63 76 77 61 56 50 45 40 40
171 168 167 167 169 168 165 167 168 164 156 159 162 165 158 153 149 152 153 157 156 143 142 139 138 138 138 129 139 128 122 129 130 117 116 111 107 101 98 97 94 86 67 68 63 86 71 60 51 45 42 35
172 179 177 180 178 170 169 173 162 157 165 164 163 169 170 168 160 164 163 159 155 153 153 149 145 143 149 147 153 139 142 147 132 136 117 113 116 110 113 107 113 95 85 64 65 77 86 62 66 61 55 40
184 178 184 182 175 173 176 167 158 168 165 167 175 174 171 169 169 159 159 157 159 155 151 155 156 159 153 150 164 151 144 145 138 137 139 144 139 131 123 114 98 109 89 73 56 51 75 50 68 55 40 49
182 185 186 180 174 181 177 164 170 170 172 178 180 174 174 173 170 165 163 160 161 159 157 161 163 160 160 170 166 156 143 144 134 134 127 115 117 121 116 111 91 96 110 80 57 43 55 23 59 40 32 53
187 184 184 179 184 185 173 175 172 177 182 181 180 176 178 177 172 172 167 170 166 163 162 159 159 165 174 168 163 154 147 135 128 117 116 99 106 101 102 103 92 85 89 106 62 55 36 34 39 13 37 37
185 189 187 186 187 181 175 181 180 186 182 180 180 179 180 178 179 173 174 163 165 158 158 161 167 169 173 170 163 152 147 145 148 140 133 144 129 145 133 140 141 116 98 76 48 48 21 47 20 4 27 30
192 188 189 187 187 185 186 186 189 186 180 183 184 177 182 182 182 177 173 170 161 164 162 164 169 177 177 163 160 156 164 150 153 149 155 152 147 133 130 142 153 151 155 146 125 47 30 25 347 19 8 6
194 192 190 191 188 187 187 188 191 188 187 185 177 183 183 185 185 175 175 171 166 163 172 172 178 181 161 166 158 160 157 151 162 163 156 170 152 149 176 154 169 128 157 141 140 92 37 359 10 356 349 4
197 191 189 190 192 193 187 189 193 191 184 179 181 187 187 185 185 177 177 176 174 168 173 177 178 169 168 163 163 162 166 171 169 164 164 167 173 161 167 174 180 173 171 164 160 64 38 11 16 339 312 310
196 194 192 194 193 189 190 196 195 190 178 187 191 187 192 182 183 181 181 179 177 176 178 177 172 163 165 165 161 162 167 180 166 168 164 167 179 169 151 177 179 196 175 157 162 23 9 325 344 282 304 277
195 194 198 192 188 191 195 198 198 181 184 196 195 194 189 176 187 185 182 180 177 176 175 172 170 167 171 166 164 160 167 164 171 171 172 169 170 163 173 168 183 167 151 142 99 313 293 324 291 281 263 248
193 191 190 185 179 196 201 199 195 192 199 197 196 195 185 185 189 187 183 181 180 180 175 175 176 172 168 171 163 166 170 178 180 182 178 186 168 165 165 118 137 127 128 88 47 302 311 285 270 284 250 258
190 191 190 199 199 202 192 196 197 201 201 201 200 194 189 187 190 185 180 182 178 186 182 179 170 164 172 174 175 178 190 186 186 186 179 163 163 164 167 189 135 146 127 122 301 342 297 308 234 246 240 234
193 194 193 189 195 194 197 197 198 207 204 204 199 191 189 191 188 185 185 184 186 188 184 177 175 177 178 177 185 192 179 172 174 163 162 151 154 180 174 195 168 180 129 151 193 159 302 303 301 257 227 234
199 198 201 196 194 192 202 208 205 205 202 192 190 190 192 190 185 184 191 190 189 189 191 185 176 185 177 181 180 172 178 176 179 180 178 174 176 170 174 171 171 180 197 159 139 135 90 277 226 284 268 248
200 198 197 203 198 205 198 190 189 183 151 163 167 193 187 194 190 193 195 194 192 191 188 183 186 178 179 186 185 184 181 182 189 178 180 182 187 157 159 200 206 186 195 147 143 188 196 215 128 302 247 205
191 180 177 168 88 97 116 66 133 151 180 180 188 180 185 203 197 197 199 193 191 192 191 189 186 184 187 184 188 187 187 188 193 188 189 184 178 184 187 194 181 197 196 204 222 136 114 60 10 223 253 119
184 187 184 173 179 181 184 197 174 193 197 190 191 200 201 199 194 197 198 194 194 196 190 191 191 188 181 188 187 191 197 191 177 189 189 191 188 194 208 181 164 195 214 210 220 220 130 153 169 188 230 114
185 188 191 193 196 197 197 202 210 204 203 200 203 196 193 196 194 195 195 198 194 194 196 192 190 190 191 191 191 191 190 189 194 194 195 186 191 200 192 157 186 195 193 163 244 233 206 165 179 159 128 198